Regional Weather Roundup
Issued by NWS State College, PA

Home | Current Version | Previous Version | Text Only | Print | Product List | Glossary On
Versions: 1 2 3 4 5 6 7 8 9 10 11 12 13 14 15 16 17 18 19 20 21 22 23 24 25 26 27 28 29 30 31 32 33 34 35 36 37 38 39 40 41 42 43 44 45 46 47 48 49 50
000
ASUS41 KCTP 292210
RWRCTP

REGIONAL WEATHER ROUNDUP
NATIONAL WEATHER SERVICE STATE COLLEGE PA
600 PM EDT SUN MAY 29 2016

Note: "fair" indicates few or no clouds below 12,000 feet with no
significant weather and/or obstructions to visibility.

* = STATION THAT DOES NOT REPORT PRECIPITATION /E.G. RAIN...SNOW...ETC/
    THUNDER OR FOG.

PAZ002>004-007>009-013>016-020>023-029>032-292300-
WESTERN PENNSYLVANIA

CITY           SKY/WX    TMP DP  RH WIND       PRES   REMARKS
ERIE           CLOUDY    82  65  56 S10       30.00F
MEADVILLE      CLOUDY    75  66  73 S6        30.05F
FRANKLIN*      CLOUDY    66  55  68 SE10      30.10F
NEW CASTLE     FAIR      72  60  66 S6        30.07F
BEAVER COUNTY  NOT AVBL
BUTLER*        CLOUDY    68  61  77 CALM      30.12F
PITTSBURGH INT CLOUDY    74  62  66 SE8       30.08F
PITTSBURGH     CLOUDY    70  59  68 SE7       30.09S
INDIANA*       MOSUNNY   66  64  94 S3        30.15S
LATROBE        LGT RAIN  66  66 100 SE7       30.12F
WASHINGTON CO* CLOUDY    73  63  68 E3        30.10R
$$

PAZ004>006-010>012-017>019-024>028-033>037-041-042-045-046-049>053-292300-
CENTRAL PENNSYLVANIA

CITY           SKY/WX    TMP DP  RH WIND       PRES   REMARKS
BRADFORD       CLOUDY    75  64  68 CALM      30.10S
DUBOIS         CLOUDY    66  55  67 SW7       30.12R
CLEARFIELD     LGT RAIN  66  60  81 SW6       30.11S
JOHNSTOWN      LGT RAIN  63  58  83 S3        30.15S
ALTOONA        CLOUDY    69  60  73 W9        30.12R
STATE COLLEGE  MOSUNNY   77  61  57 S7        30.08R
WILLIAMSPORT   CLOUDY    83  59  44 S14G21    30.00F
SELINSGROVE    CLOUDY    83  56  39 S5        30.04S
FT INDIANTOWN  PTSUNNY   84  60  43 S9        30.04S
CAPITAL CITY   MOSUNNY   84  61  45 SW8       30.04S
HARRISBURG     CLOUDY    84  61  45 SW6       30.03S
YORK           CLOUDY    81  64  56 S5        30.05S
$$

PAZ038>040-043-044-047-048-054-055-060>062-067>071-292300-
EASTERN PENNSYLVANIA

CITY           SKY/WX    TMP DP  RH WIND       PRES   REMARKS
SCRANTON       MOSUNNY   84  59  42 VRB6      30.04F
MOUNT POCONO   SUNNY     79  58  48 S8        30.11F
ALLENTOWN      SUNNY     87  54  32 S8        30.04F
QUAKERTOWN*    PTCLDY    84  57  39 SW5       30.07S
READING        MOSUNNY   84  62  47 S9        30.04S
LANCASTER      CLOUDY    82  65  56 SW9       30.05S
COATESVILLE    CLOUDY    77  68  73 S9        30.09S
POTTSTOWN      PTSUNNY   83  63  50 S6        30.07S
BLUE BELL      PTSUNNY   81  64  57 S9        30.05S
DOYLESTOWN     CLOUDY    84  58  40 SW8       30.05S
WILLOW GROVE   NOT AVBL
NORTH PHILA    CLOUDY    84  66  54 SW7       30.07R
PHILADELPHIA   CLOUDY    81  67  62 S13       30.07R
$$



USA.gov is the U.S. government's official web portal to all federal, state and local government web resources and services.